Weather History for Rockport, TX

Change the Weather History Date:

Monday, March 10, 2014

  Actual Average Record
Temperature  
Mean Temperature 58 °F -  
Max Temperature 63 °F 72 °F 83 °F (1973)
Min Temperature 52 °F 57 °F 39 °F (1983)
Degree Days  
Heating Degree Days 8    
Growing Degree Days 8 (Base 50)    
Moisture  
Dew Point 55 °F    
Average Humidity 89    
Maximum Humidity 100    
Minimum Humidity 75    
Precipitation  
Precipitation 0.02 in - - ()
Sea Level Pressure  
Sea Level Pressure 30.05 in    
Wind  
Wind Speed 6 mph (NNW)    
Max Wind Speed 9 mph    
Max Gust Speed -    
Visibility 5 miles    
Events Rain    
Averages and records for this station are not official NWS values.
T = Trace of Precipitation, MM = Missing Value Source: NWS Daily Summary

Daily Weather History Graph

Daily Weather History Graph

Search for Another Location

Airport:

Trip Planner

Search our weather history database for the weather conditions in past years. The results will help you decide how hot, cold, wet, or windy it might be!

Date:

Astronomy

Mar. 10, 2014 Rise Set
Actual Time 7:43 AM CDT 7:33 PM CDT
Civil Twilight 7:19 AM CDT 7:57 PM CDT
Nautical Twilight 6:52 AM CDT 8:24 PM CDT
Astronomical Twilight 6:25 AM CDT 8:51 PM CDT
Moon 2:38 PM CDT (3/10) 3:35 AM CDT (3/10)
Length of Visible Light 12h 37m
Length of Day
11h 50m
Waxing Gibbous, 70% of the Moon is Illuminated
Mar 10
Waxing Gibbous
Mar 16
Full
Mar 23
Last Quarter
Mar 30
New
Apr 7
First Quarter

Hourly Weather History & Observations

Time (CDT) Temp. Dew Point Humidity Pressure Visibility Wind Dir Wind Speed Gust Speed Precip Events Conditions
12:53 AM 53.1 °F 48.9 °F 86% 30.20 in 9.0 mi ENE 8.1 mph - N/A   Scattered Clouds
1:53 AM 53.1 °F 48.9 °F 86% 30.18 in 9.0 mi NNW 9.2 mph - N/A   Clear
2:53 AM 53.1 °F 48.9 °F 86% 30.17 in 9.0 mi North 8.1 mph - N/A   Scattered Clouds
3:53 AM 53.1 °F 48.9 °F 86% 30.16 in 9.0 mi North 5.8 mph - N/A   Overcast
4:53 AM 53.1 °F 48.9 °F 86% 30.14 in 9.0 mi Calm Calm - N/A   Overcast
5:53 AM 53.1 °F 48.9 °F 86% 30.15 in 9.0 mi NW 8.1 mph - N/A   Overcast
6:53 AM 52.0 °F 48.0 °F 86% 30.15 in 9.0 mi NW 9.2 mph - N/A   Overcast
7:53 AM 53.1 °F 48.0 °F 83% 30.16 in 9.0 mi North 5.8 mph - N/A   Overcast
8:53 AM 53.1 °F 48.9 °F 86% 30.16 in 7.0 mi North 8.1 mph - N/A   Overcast
9:53 AM 55.0 °F 48.9 °F 80% 30.16 in 7.0 mi NE 8.1 mph - N/A   Overcast
10:53 AM 57.0 °F 51.1 °F 81% 30.16 in 7.0 mi NNE 8.1 mph - N/A   Overcast
11:05 AM 57.9 °F 51.1 °F 78% 30.15 in 7.0 mi NNE 8.1 mph - N/A   Overcast
11:53 AM 60.1 °F 52.0 °F 75% 30.15 in 8.0 mi North 6.9 mph - N/A   Overcast
12:49 PM 60.8 °F 53.6 °F 77% 30.13 in 8.0 mi NNE 8.1 mph - N/A   Overcast
12:53 PM 61.0 °F 53.1 °F 75% 30.13 in 8.0 mi NNE 6.9 mph - N/A   Overcast
1:53 PM 62.1 °F 54.0 °F 75% 30.10 in 8.0 mi ENE 4.6 mph - N/A   Overcast
2:53 PM 63.0 °F 55.0 °F 75% 30.06 in 8.0 mi East 8.1 mph - N/A   Overcast
3:53 PM 63.0 °F 55.0 °F 75% 30.03 in 9.0 mi ESE 6.9 mph - N/A   Overcast
4:53 PM 62.1 °F 55.0 °F 78% 30.01 in 9.0 mi East 3.5 mph - N/A   Overcast
5:53 PM 62.1 °F 55.9 °F 80% 30.01 in 2.5 mi Calm Calm - 0.00 in Rain Light Rain
5:59 PM 61.0 °F 57.0 °F 87% 30.01 in 1.8 mi Calm Calm - 0.00 in Rain Light Rain
6:03 PM 61.0 °F 57.0 °F 87% 30.01 in 2.0 mi Calm Calm - 0.00 in Rain Light Rain
6:05 PM 61.0 °F 57.0 °F 87% 30.01 in 1.8 mi Calm Calm - 0.00 in Rain Light Rain
6:20 PM 59.0 °F 57.0 °F 93% 30.01 in 2.0 mi WNW 4.6 mph - 0.00 in Rain Light Rain
6:49 PM 57.2 °F 57.2 °F 100% 30.01 in 1.2 mi West 4.6 mph - 0.00 in Rain Light Rain
6:53 PM 59.0 °F 57.0 °F 93% 30.02 in 1.0 mi West 4.6 mph - 0.00 in Rain Light Rain
7:00 PM 59.0 °F 57.9 °F 96% 30.01 in 1.0 mi West 4.6 mph - 0.00 in Rain Light Rain
7:11 PM 57.9 °F 57.9 °F 100% 30.01 in 1.2 mi Variable 4.6 mph - 0.00 in Rain Light Rain
7:22 PM 57.9 °F 57.0 °F 97% 30.00 in 1.2 mi WNW 5.8 mph - 0.00 in Rain Light Rain
7:29 PM 57.9 °F 57.9 °F 100% 30.00 in 1.5 mi WNW 4.6 mph - 0.00 in Rain Light Rain
7:35 PM 57.9 °F 57.9 °F 100% 30.00 in 1.8 mi NW 4.6 mph - 0.00 in Rain Light Rain
7:46 PM 57.9 °F 57.9 °F 100% 30.00 in 2.5 mi WNW 3.5 mph - 0.00 in Rain Light Rain
7:53 PM 59.0 °F 57.9 °F 96% 30.01 in 2.5 mi Calm Calm - 0.00 in   Overcast
8:02 PM 59.0 °F 57.9 °F 96% 29.99 in 2.0 mi Calm Calm - N/A   Overcast
8:17 PM 59.0 °F 57.9 °F 96% 29.99 in 2.5 mi Calm Calm - N/A   Overcast
8:44 PM 59.0 °F 57.9 °F 96% 29.96 in 3.0 mi East 8.1 mph - 0.01 in Rain Rain
8:53 PM 57.9 °F 57.9 °F 100% 29.95 in 3.0 mi East 9.2 mph - 0.02 in Rain Rain
9:53 PM 57.9 °F 57.0 °F 97% 29.95 in 4.0 mi SE 9.2 mph - 0.00 in   Clear
10:49 PM 57.2 °F 57.2 °F 100% 29.96 in 2.5 mi WNW 4.6 mph - N/A   Mostly Cloudy
10:53 PM 57.9 °F 55.9 °F 93% 29.97 in 2.0 mi West 4.6 mph - N/A   Mostly Cloudy
10:59 PM 57.9 °F 57.0 °F 97% 29.96 in 2.5 mi West 3.5 mph - N/A   Mostly Cloudy
11:09 PM 57.9 °F 57.0 °F 97% 29.96 in 3.0 mi WNW 5.8 mph - N/A   Overcast
11:36 PM 57.9 °F 57.0 °F 97% 29.96 in 3.0 mi WNW 5.8 mph - N/A   Overcast
11:46 PM 57.9 °F 57.0 °F 97% 29.96 in 3.0 mi West 5.8 mph - N/A   Overcast
11:53 PM 57.9 °F 57.0 °F 97% 29.96 in 3.0 mi WNW 6.9 mph - N/A   Overcast